New Philadelphia, OH

1:29 PM EST on December 14, 2019 (GMT -0500)
Clever

Weather History for KPHD - November, 2019

Change the Weather History Date:

Friday, November 22, 2019

  Actual Average Record
Temperature  
Mean Temperature 40 °F 41 °F  
Max Temperature 54 °F 50 °F 70 °F (1979)
Min Temperature 25 °F 32 °F 12 °F (1964)
Degree Days  
Heating Degree Days 26 24  
Month to date heating degree days 623 452  
Since 1 July heating degree days 908 951  
Cooling Degree Days 0 0  
Month to date cooling degree days 0 0  
Year to date cooling degree days 962 697  
Moisture  
Dew Point 36 °F    
Average Humidity 80    
Maximum Humidity 93    
Minimum Humidity 59    
Precipitation  
Precipitation 0.14 in 0.12 in 0.90 in (1982)
Month to date precipitation 1.01 2.33  
Year to date precipitation 39.63 35.29  
Sea Level Pressure  
Sea Level Pressure 30.00 in    
Wind  
Wind Speed 8 mph ()    
Max Wind Speed 20 mph    
Max Gust Speed 26 mph    
Visibility 8.3 miles    
Events Rain    
T = Trace of Precipitation, MM = Missing Value Source: Averaged Metar Reports

Daily Weather History Graph

Daily Weather History Graph

Search for Another Location

Airport or City:

Astronomy

Nov. 22, 2019 Rise Set
Actual Time 7:19 AM EST 5:03 PM EST
Civil Twilight 6:49 AM EST 5:33 PM EST
Nautical Twilight 6:16 AM EST 6:06 PM EST
Astronomical Twilight 5:44 AM EST 6:39 PM EST
Moon 2:22 AM EST (11/22) 3:04 PM EST (11/22)
Length of Visible Light 10h 43m
Length of Day
9h 43m
Waning Crescent, 20% of the Moon is Illuminated
Nov 22
Waning Crescent
Nov 26
New
Dec 4
First Quarter
Dec 12
Full
Dec 18
Last Quarter

Hourly Weather History & Observations

Time (EST) Temp. Windchill Dew Point Humidity Pressure Visibility Wind Dir Wind Speed Gust Speed Precip Events Conditions
12:53 AM 53.1 °F - 45.0 °F 74% 29.90 in 10.0 mi Variable 6.9 mph - N/A   Overcast
1:53 AM 54.0 °F - 46.0 °F 75% 29.88 in 10.0 mi Variable 6.9 mph - N/A   Overcast
2:53 AM 53.1 °F - 46.9 °F 80% 29.88 in 8.0 mi SW 8.1 mph - N/A   Overcast
3:11 AM 52.0 °F - 48.0 °F 86% 29.87 in 8.0 mi SW 9.2 mph - N/A   Overcast
3:53 AM 52.0 °F - 48.0 °F 86% 29.86 in 6.0 mi Variable 6.9 mph - 0.00 in   Overcast
4:35 AM 50.0 °F - 46.9 °F 89% 29.86 in 2.5 mi WNW 13.8 mph 21.9 mph 0.03 in Rain Light Rain
4:41 AM 50.0 °F - 46.0 °F 86% 29.87 in 4.0 mi WNW 12.7 mph 21.9 mph 0.04 in Rain Light Rain
4:53 AM 48.9 °F - 46.9 °F 93% 29.88 in 4.0 mi WNW 8.1 mph - 0.05 in Rain Light Rain
5:03 AM 48.9 °F - 46.0 °F 90% 29.87 in 5.0 mi WNW 8.1 mph - 0.01 in Rain Light Rain
5:53 AM 46.0 °F 40.6 °F 42.1 °F 86% 29.91 in 7.0 mi WNW 11.5 mph 20.7 mph 0.04 in Rain Light Rain
6:00 AM 45.0 °F 39.7 °F 42.1 °F 90% 29.90 in 6.0 mi WNW 10.4 mph - 0.00 in Rain Light Rain
6:07 AM 45.0 °F 40.6 °F 42.1 °F 90% 29.90 in 6.0 mi WNW 8.1 mph - 0.01 in Rain Light Rain
6:33 AM 45.0 °F 40.1 °F 42.1 °F 90% 29.91 in 5.0 mi WNW 9.2 mph - 0.03 in Rain Light Rain
6:43 AM 45.0 °F 38.9 °F 41.0 °F 86% 29.93 in 6.0 mi NW 12.7 mph 23.0 mph 0.04 in Rain Light Rain
6:53 AM 44.1 °F 38.1 °F 39.0 °F 82% 29.94 in 9.0 mi WNW 11.5 mph 23.0 mph 0.04 in Rain Light Rain
7:39 AM 43.0 °F 37.7 °F 39.0 °F 86% 29.97 in 8.0 mi NW 9.2 mph - 0.01 in   Overcast
7:53 AM 41.0 °F 33.9 °F 37.0 °F 86% 30.00 in 9.0 mi NW 12.7 mph 21.9 mph 0.01 in   Overcast
8:53 AM 41.0 °F 34.3 °F 36.0 °F 82% 30.03 in 10.0 mi NW 11.5 mph - N/A   Overcast
9:07 AM 41.0 °F 33.5 °F 35.1 °F 79% 30.03 in 10.0 mi NNW 13.8 mph 23.0 mph N/A   Overcast
9:53 AM 39.9 °F 33.9 °F 34.0 °F 79% 30.06 in 10.0 mi WNW 9.2 mph 20.7 mph N/A   Overcast
10:53 AM 39.9 °F 32.5 °F 30.9 °F 70% 30.08 in 10.0 mi NW 12.7 mph - N/A   Overcast
11:53 AM 41.0 °F 34.3 °F 30.0 °F 65% 30.07 in 10.0 mi NW 11.5 mph - N/A   Overcast
12:53 PM 41.0 °F 33.5 °F 30.0 °F 65% 30.06 in 10.0 mi WNW 13.8 mph 19.6 mph N/A   Overcast
1:53 PM 39.9 °F 33.4 °F 28.0 °F 63% 30.06 in 10.0 mi NW 10.4 mph - N/A   Overcast
3:53 PM 39.0 °F 32.3 °F 26.1 °F 60% 30.10 in 10.0 mi NW 10.4 mph - N/A   Mostly Cloudy
4:53 PM 37.9 °F 34.4 °F 25.0 °F 60% 30.12 in 10.0 mi North 4.6 mph - N/A   Overcast
5:53 PM 37.0 °F 32.4 °F 26.1 °F 65% 30.14 in 10.0 mi North 5.8 mph - N/A   Overcast
6:53 PM 35.1 °F 31.0 °F 25.0 °F 67% 30.15 in 10.0 mi North 4.6 mph - N/A   Scattered Clouds
7:53 PM 30.0 °F - 25.0 °F 82% 30.17 in 10.0 mi Calm Calm - N/A   Clear
8:53 PM 28.9 °F - 24.1 °F 82% 30.16 in 10.0 mi Calm Calm - N/A   Clear
9:53 PM 28.0 °F - 24.1 °F 85% 30.15 in 10.0 mi Calm Calm - N/A   Clear
10:53 PM 27.0 °F - 23.0 °F 85% 30.13 in 10.0 mi Calm Calm - N/A   Clear
11:53 PM 26.1 °F - 21.9 °F 84% 30.12 in 10.0 mi Calm Calm - N/A   Clear